Flag for U.S.A. Weather past 2 weeks in Hampton, Virginia, U.S.A.

Now
68 °F

Passing clouds.


Feels Like: 68 °F
Forecast: 58 / 71 °F
Wind: 12 mph from North

Location: Langley Air Force Base

Current Time: Apr 18, 2015 at 10:20:29 AM

Latest Report: Apr 18, 2015 at 9:58 AM


Visibility: 9 mi

Pressure: 30.01 "Hg

Humidity: 79%

Dew point: 62 °F

Location of HamptonLocation

Historic Weather in Hampton — Graph

°F

Hampton temperature yesterday

Maximum temperature yesterday: 76 °F (at 5:58 PM)
Minimum temperature yesterday: 55 °F (at 12:58 AM)
Average temperature yesterday: 65 °F

Past Weeks' High & Low Weather Summary

 TemperatureHumidityPressure
High82 °F (Apr 10, 2:58 PM)100% (Apr 8, 12:03 PM)30.41 "Hg (Apr 8, 12:03 PM)
Low36 °F (Apr 5, 6:58 AM)21% (Apr 4, 5:58 PM)29.70 "Hg (Apr 4, 4:58 AM)
Average60 °F72%30.16 "Hg
* Reported Apr 3 8:58 AM — Apr 18 8:58 AM, Hampton, Weather by CustomWeather, © 2015

Note: Actual official high and low records may vary slightly from our data, if they occured in-between our weather recording intervals... More about our weather records

Advertising

Hampton weather history for previous 24 hours

 ConditionsComfort  
Time TempWeatherWind HumidityBarometerVisibility
8:58 AM
Sat, Apr 18
67 °FSunny.6 mph83%30.00 "Hg10 mi
7:58 AM64 °FOvercast.5 mph97%30.02 "Hg9 mi
6:58 AM62 °FFog.2 mph97%30.00 "Hg6 mi
5:58 AM63 °FMostly cloudy.3 mph97%29.97 "Hg8 mi
4:58 AM61 °FFog.3 mph97%29.96 "Hg1 mi
3:58 AM62 °FClear.3 mph97%29.96 "Hg10 mi
2:58 AM64 °FClear.5 mph92%29.97 "Hg10 mi
1:58 AM65 °FClear.6 mph89%29.98 "Hg10 mi
12:58 AM65 °FPassing clouds.6 mph90%30.00 "Hg10 mi
11:58 PM
Fri, Apr 17
65 °FClear.5 mph88%30.00 "Hg10 mi
10:58 PM64 °FClear.5 mph88%30.00 "Hg10 mi
9:58 PM64 °FClear.5 mph86%29.99 "Hg10 mi
8:58 PM66 °FClear.5 mph80%29.99 "Hg10 mi
7:58 PM68 °FSunny.3 mph76%29.98 "Hg9 mi
6:58 PM72 °FSunny.6 mph69%29.97 "Hg10 mi
5:58 PM76 °FMostly cloudy.6 mph62%29.98 "Hg10 mi
4:58 PM75 °FMostly cloudy.8 mph64%29.98 "Hg10 mi
3:58 PM75 °FPartly sunny.12 mph63%30.00 "Hg9 mi
2:59 PM75 °FDrizzle. Partly sunny.10 mph65%30.01 "Hg9 mi
1:58 PM73 °FBroken clouds.12 mph67%30.06 "Hg8 mi
12:58 PM71 °FMostly cloudy.8 mph72%30.10 "Hg9 mi
11:58 AM68 °FOvercast.12 mph74%30.12 "Hg9 mi
11:02 AM66 °FOvercast.7 mph78%30.12 "Hg9 mi
10:58 AM65 °FDrizzle. Overcast.8 mph82%30.14 "Hg9 mi
Weather by CustomWeather, © 2015

See weather overviewHow to use our weather pages